Regional Weather Roundup
Issued by NWS

Home | Current Version | Previous Version | Text Only | Print | Product List | Glossary Off
Versions: 1 2 3 4 5 6 7 8 9 10 11 12 13 14 15 16 17 18 19 20 21 22 23 24 25 26 27 28 29 30 31 32 33 34 35 36 37 38 39 40 41 42 43 44 45 46 47 48 49 50

000
ASUS43 KFSD 230502
RWRSD

WEATHER ROUNDUP FOR SOUTH DAKOTA
NATIONAL WEATHER SERVICE SIOUX FALLS SD
1100 PM CST MON JAN 22 2018

NOTE: "FAIR" INDICATES FEW OR NO CLOUDS BELOW 12,000 FEET WITH NO
SIGNIFICANT WEATHER AND/OR OBSTRUCTIONS TO VISIBILITY.


SDZ001>005-009-010-012>017-230600-
NORTHWEST AND NORTH CENTRAL SOUTH DAKOTA

CITY           SKY/WX    TMP DP  RH WIND       PRES   REMARKS
BUFFALO          N/A     28  20  71 W7        29.97R WCI  21
FAITH            N/A     23  19  85 NW9       30.01S WCI  13
MOBRIDGE       FOG       23  20  88 W5        30.01R VSB 1/2 WCI  17
$$

SDZ012>016-024>037-041>051-057-063-072>074-230600-
SOUTHWEST AND SOUTH CENTRAL SOUTH DAKOTA

CITY           SKY/WX    TMP DP  RH WIND       PRES   REMARKS
RAPID CTY ARPT PTCLDY    30  19  63 NW15      30.03R WCI  19
PIERRE         CLOUDY    21  21 100 N7        30.05R FOG     WCI  12
CUSTER         CLOUDY    24  13  62 N5        29.99S WCI  18
ELLSWORTH AFB  PTCLDY    31  20  65 NW12      30.03R WCI  21
PHILIP         CLEAR     21  19  92 W8        30.05R WCI  11
PINE RIDGE     CLEAR     13   9  84 SW3       30.06S
SPEARFISH      MIX PCPN  32  25  74 NW10G18   30.06R WCI  24
WINNER         MIX PCPN  23  21  92 NW9       30.03S VSB 1   WCI  13
$$

SDZ004>011-016>023-039-040-230600-
NORTHEAST SOUTH DAKOTA

CITY           SKY/WX    TMP DP  RH WIND       PRES   REMARKS
ABERDEEN       CLOUDY    22  21  96 N10       30.05S WCI  11
WATERTOWN      CLOUDY    21  20  96 N18       29.95R WCI   6
BROOKINGS      CLOUDY    22  20  92 N18       29.94R WCI   7
SISSETON         N/A     23  21  92 N18       30.00R WCI   9
$$

SDZ017-020-022-023-036>040-048>070-230600-
SOUTHEAST SOUTH DAKOTA

CITY           SKY/WX    TMP DP  RH WIND       PRES   REMARKS
SIOUX FALLS    CLOUDY    26  23  88 N18G25    29.94R WCI  13
HURON          CLOUDY    22  21  96 N16       30.03R WCI   8
CHAMBERLAIN    CLOUDY    24  24 100 NW12      30.04R WCI  13
MITCHELL       CLOUDY    23  22  96 N18G24    30.03R WCI   9
YANKTON        MIX PCPN  24  21  88 NW25      29.98R WCI   8
$$

ABBREVIATIONS USED IN REMARKS
   TC - TEMPERATURE IN CELSIUS
  WCI - WIND CHILL INDEX
   HX - HEAT INDEX
  VSB - VISIBILITY





USA.gov is the U.S. government's official web portal to all federal, state and local government web resources and services.